Location: Cassano d�Adda
(45.5333°N, 9.5167°E)
Time: 17:34:19
(UTC+00:00)

BREEZE-M R/B - Pass Details

Date: 08 December 2019
Orbit: 309 x 4546 km, 49.7° (Epoch: 28 January)

Event Time Altitude Azimuth Distance (km) Brightness Sun altitude
Rises 18:03:59 0° 285° (WNW) 3,522 8.0 -24.6°
Reaches altitude 10° 18:07:19 10° 291° (WNW) 2,063 6.5 -25.2°
Enters shadow 18:10:10 31° 314° (NW) 879 4.1 -25.7°
